Track LEMUR 2 MIMI1307 now! 10-day predictions LEMUR 2 MIMI1307 is classified as:
1 52769U 22057AP 22179.86640776 .00005349 00000-0 30037-3 0 9997 2 52769 97.5284 294.4784 0015758 115.1747 245.1120 15.13643894 5167